Tillbaka till svenska Fidonet
English   Information   Debug  
FILM   0/18
FNEWS_PUBLISH   4926
FN_SYSOP   42201
FN_SYSOP_OLD1   71952
FTP_FIDO   0/2
FTSC_PUBLIC   0/13972
FUNNY   0/4886
GENEALOGY.EUR   0/71
GET_INFO   105
GOLDED   0/408
HAM   6514/16660
HOLYSMOKE   0/6791
HOT_SITES   0/1
HTMLEDIT   0/71
HUB203   466
HUB_100   264
HUB_400   39
HUMOR   0/29
IC   0/2851
INTERNET   0/424
INTERUSER   0/3
IP_CONNECT   719
JAMNNTPD   0/233
JAMTLAND   0/47
KATTY_KORNER   0/41
LAN   0/16
LINUX-USER   0/19
LINUXHELP   0/1155
LINUX   0/22300
LINUX_BBS   0/957
mail   18.68
mail_fore_ok   249
MENSA   0/341
MODERATOR   0/102
MONTE   0/992
MOSCOW_OKLAHOMA   0/1245
MUFFIN   0/783
MUSIC   0/321
N203_STAT   938
N203_SYSCHAT   313
NET203   321
NET204   69
NET_DEV   0/10
NORD.ADMIN   0/101
NORD.CHAT   0/2572
NORD.FIDONET   189
NORD.HARDWARE   0/28
NORD.KULTUR   0/114
NORD.PROG   0/32
NORD.SOFTWARE   0/88
NORD.TEKNIK   0/58
NORD   0/453
OCCULT_CHAT   0/93
OS2BBS   0/787
OS2DOSBBS   0/580
OS2HW   0/42
OS2INET   0/37
OS2LAN   0/134
OS2PROG   0/36
OS2REXX   0/113
OS2USER-L   207
OS2   0/4830
OSDEBATE   0/18996
PASCAL   0/490
PERL   0/457
PHP   0/45
POINTS   0/405
POLITICS   0/29554
POL_INC   0/14731
PSION   103
R20_ADMIN   1133
R20_AMATORRADIO   0/2
R20_BEST_OF_FIDONET   16
R20_CHAT   0/896
R20_DEPP   0/3
R20_DEV   400
R20_ECHO2   1830
R20_ECHOPRES   0/35
R20_ESTAT   0/719
R20_FIDONETPROG...
...RAM.MYPOINT
  0/2
R20_FIDONETPROGRAM   0/22
R20_FIDONET   0/248
R20_FILEFIND   0/24
R20_FILEFOUND   0/22
R20_HIFI   0/3
R20_INFO2   3723
R20_INTERNET   0/12940
R20_INTRESSE   0/60
R20_INTR_KOM   0/99
R20_KANDIDAT.CHAT   42
R20_KANDIDAT   28
R20_KOM_DEV   112
R20_KONTROLL   0/13360
R20_KORSET   0/18
R20_LOKALTRAFIK   0/24
R20_MODERATOR   0/1852
R20_NC   76
R20_NET200   245
R20_NETWORK.OTH...
...ERNETS
  0/13
R20_OPERATIVSYS...
...TEM.LINUX
  0/44
R20_PROGRAMVAROR   0/1
R20_REC2NEC   534
R20_SFOSM   0/341
R20_SF   0/108
R20_SPRAK.ENGLISH   0/1
R20_SQUISH   107
R20_TEST   2
R20_WORST_OF_FIDONET   20
RAR   0/9
RA_MULTI   106
RA_UTIL   0/162
REGCON.EUR   0/2068
REGCON   0/13
SCIENCE   0/1206
SF   0/239
SHAREWARE_SUPPORT   0/5146
SHAREWRE   0/14
SIMPSONS   0/169
STATS_OLD1   0/2539.065
STATS_OLD2   0/2530
STATS_OLD3   0/2395.095
STATS_OLD4   0/1692.25
SURVIVOR   0/495
SYSOPS_CORNER   0/3
SYSOP   0/84
TAGLINES   0/112
TEAMOS2   0/4530
TECH   0/2617
TEST.444   0/105
TRAPDOOR   0/19
TREK   0/755
TUB   0/290
UFO   0/40
UNIX   0/1316
USA_EURLINK   0/102
USR_MODEMS   0/1
VATICAN   0/2740
VIETNAM_VETS   0/14
VIRUS   0/378
VIRUS_INFO   0/201
VISUAL_BASIC   0/473
WHITEHOUSE   0/5187
WIN2000   0/101
WIN32   0/30
WIN95   0/4291
WIN95_OLD1   0/70272
WINDOWS   0/1517
WWB_SYSOP   0/419
WWB_TECH   0/810
ZCC-PUBLIC   0/1
ZEC   4

 
4DOS   0/134
ABORTION   0/7
ALASKA_CHAT   0/506
ALLFIX_FILE   0/1313
ALLFIX_FILE_OLD1   0/7997
ALT_DOS   0/152
AMATEUR_RADIO   0/1039
AMIGASALE   0/14
AMIGA   0/331
AMIGA_INT   0/1
AMIGA_PROG   0/20
AMIGA_SYSOP   0/26
ANIME   0/15
ARGUS   0/924
ASCII_ART   0/340
ASIAN_LINK   0/651
ASTRONOMY   0/417
AUDIO   0/92
AUTOMOBILE_RACING   0/105
BABYLON5   0/17862
BAG   135
BATPOWER   0/361
BBBS.ENGLISH   0/382
BBSLAW   0/109
BBS_ADS   0/5290
BBS_INTERNET   0/507
BIBLE   0/3563
BINKD   0/1119
BINKLEY   0/215
BLUEWAVE   0/2173
CABLE_MODEMS   0/25
CBM   0/46
CDRECORD   0/66
CDROM   0/20
CLASSIC_COMPUTER   0/378
COMICS   0/15
CONSPRCY   0/899
COOKING   41444
COOKING_OLD1   0/24719
COOKING_OLD2   0/40862
COOKING_OLD3   0/37489
COOKING_OLD4   0/35496
COOKING_OLD5   9370
C_ECHO   0/189
C_PLUSPLUS   0/31
DIRTY_DOZEN   0/201
DOORGAMES   0/2285
DOS_INTERNET   0/196
duplikat   6102
ECHOLIST   0/18295
EC_SUPPORT   0/318
ELECTRONICS   0/359
ELEKTRONIK.GER   1534
ENET.LINGUISTIC   0/13
ENET.POLITICS   0/4
ENET.SOFT   0/11701
ENET.SYSOP   34296
ENET.TALKS   0/32
ENGLISH_TUTOR   0/2000
EVOLUTION   0/1335
FDECHO   0/217
FDN_ANNOUNCE   0/7068
FIDONEWS   25062
FIDONEWS_OLD1   0/49742
FIDONEWS_OLD2   0/35949
FIDONEWS_OLD3   0/30874
FIDONEWS_OLD4   0/37224
FIDO_SYSOP   12922
FIDO_UTIL   0/180
FILEFIND   0/209
FILEGATE   0/212
Möte HAM, 16660 texter
 lista första sista föregående nästa
Text 2337, 871 rader
Skriven 2008-05-17 20:00:22 av Amsat List (1:323/120.0)
Ärende: [keps]  orb08138.amsa
=============================
[keps]  orb08138.amsa

Return-Path: <keps-bounces@amsat.org>
X-Rcpt: craig.healy@chowda.com
X-UIDL: 1211067106.8407

SB KEPS @ AMSAT  $ORB08138.O
Orbital Elements  08138.OSCAR

HR AMSAT ORBITAL ELEMENTS FOR OSCAR SATELLITES
FROM WA5QGD FORT WORTH,TX May 17, 2008
Send Subscribe/unsubscribe to KEPS at 
http://www.amsat.org/mailman/listinfo/keps
BID: ORB08138.O
TO ALL RADIO AMATEURS BT

Satellite: AO-07
Catalog number: 07530
Epoch time:      08138.72770434
Element set:     178
Inclination:      101.4673 deg
RA of node:       171.2413 deg
Eccentricity:    0.0011846
Arg of perigee:   322.6077 deg
Mean anomaly:     037.4164 deg
Mean motion:   12.53573817 rev/day
Decay rate:       -2.7e-07 rev/day^2
Epoch rev:           53316
Checksum:              286

Satellite: AO-10
Catalog number: 14129
Epoch time:      08138.15785870
Element set:     507
Inclination:      025.9410 deg
RA of node:       215.0297 deg
Eccentricity:    0.5994868
Arg of perigee:   124.3024 deg
Mean anomaly:     307.4154 deg
Mean motion:   02.05870390 rev/day
Decay rate:      -1.83e-06 rev/day^2
Epoch rev:           18746
Checksum:              310

Satellite: UO-11
Catalog number: 14781
Epoch time:      08137.67253729
Element set:    0671
Inclination:      098.1566 deg
RA of node:       171.2323 deg
Eccentricity:    0.0009298
Arg of perigee:   168.6261 deg
Mean anomaly:     191.5156 deg
Mean motion:   14.79642575 rev/day
Decay rate:       2.95e-06 rev/day^2
Epoch rev:           29919
Checksum:              343

Satellite: RS-15
Catalog number: 23439
Epoch time:      08137.61689597
Element set:    0164
Inclination:      064.8163 deg
RA of node:       186.0981 deg
Eccentricity:    0.0148135
Arg of perigee:   128.8179 deg
Mean anomaly:     232.6075 deg
Mean motion:   11.27551867 rev/day
Decay rate:       -3.9e-07 rev/day^2
Epoch rev:           55140
Checksum:              334

Satellite: FO-29
Catalog number: 24278
Epoch time:      08137.76528525
Element set:    0781
Inclination:      098.5886 deg
RA of node:       058.1608 deg
Eccentricity:    0.0349980
Arg of perigee:   297.0059 deg
Mean anomaly:     059.5748 deg
Mean motion:   13.52937476 rev/day
Decay rate:       -2.9e-07 rev/day^2
Epoch rev:           58014
Checksum:              372

Satellite: SO-33
Catalog number: 25509
Epoch time:      08137.38713627
Element set:    0199
Inclination:      031.4274 deg
RA of node:       136.1549 deg
Eccentricity:    0.0354608
Arg of perigee:   109.2423 deg
Mean anomaly:     254.6887 deg
Mean motion:   14.28214084 rev/day
Decay rate:        1.9e-07 rev/day^2
Epoch rev:           49906
Checksum:              322

Satellite: AO-40
Catalog number: 26609
Epoch time:      08136.96347695
Element set:    0056
Inclination:      007.5565 deg
RA of node:       082.6655 deg
Eccentricity:    0.7912497
Arg of perigee:   081.6042 deg
Mean anomaly:     351.8066 deg
Mean motion:   01.25583857 rev/day
Decay rate:       -6.2e-07 rev/day^2
Epoch rev:           03463
Checksum:              334

Satellite: VO-52
Catalog number: 28650
Epoch time:      08137.86416089
Element set:    0932
Inclination:      097.7907 deg
RA of node:       205.3317 deg
Eccentricity:    0.0026150
Arg of perigee:   241.5477 deg
Mean anomaly:     118.3082 deg
Mean motion:   14.81460300 rev/day
Decay rate:      -2.22e-06 rev/day^2
Epoch rev:           16396
Checksum:              299

Satellite: PO-63
Catalog number: 29712
Epoch time:      08138.26280980
Element set:     451
Inclination:      097.8758 deg
RA of node:       197.0274 deg
Eccentricity:    0.0015208
Arg of perigee:   118.9009 deg
Mean anomaly:     241.3729 deg
Mean motion:   14.80148259 rev/day
Decay rate:       5.38e-06 rev/day^2
Epoch rev:            7289
Checksum:              335

/EX
SB KEPS @ AMSAT  $ORB08138.D
Orbital Elements  08138.MICROS

HR AMSAT ORBITAL ELEMENTS FOR THE MICROSATS
FROM WA5QGD FORT WORTH,TX May 17, 2008
Send Subscribe/unsubscribe to KEPS at 
http://www.amsat.org/mailman/listinfo/keps
BID: ORB08138.D
TO ALL RADIO AMATEURS BT

Satellite: AO-16
Catalog number: 20439
Epoch time:      08138.53203429
Element set:     322
Inclination:      098.2274 deg
RA of node:       120.1650 deg
Eccentricity:    0.0009984
Arg of perigee:   269.8907 deg
Mean anomaly:     090.1140 deg
Mean motion:   14.31793519 rev/day
Decay rate:        9.0e-08 rev/day^2
Epoch rev:           95653
Checksum:              305

Satellite: LO-19
Catalog number: 20442
Epoch time:      08137.60622913
Element set:    0249
Inclination:      098.1988 deg
RA of node:       127.9190 deg
Eccentricity:    0.0010963
Arg of perigee:   270.3511 deg
Mean anomaly:     089.6412 deg
Mean motion:   14.32032032 rev/day
Decay rate:        5.7e-07 rev/day^2
Epoch rev:           95655
Checksum:              298

Satellite: AO-27
Catalog number: 22825
Epoch time:      08137.62736700
Element set:    0970
Inclination:      098.3819 deg
RA of node:       098.8364 deg
Eccentricity:    0.0008469
Arg of perigee:   000.9443 deg
Mean anomaly:     359.1757 deg
Mean motion:   14.29239020 rev/day
Decay rate:        3.8e-07 rev/day^2
Epoch rev:           76326
Checksum:              332

Satellite: IO-26
Catalog number: 22826
Epoch time:      08137.68689565
Element set:    0676
Inclination:      098.3742 deg
RA of node:       099.8179 deg
Eccentricity:    0.0009278
Arg of perigee:   356.8210 deg
Mean anomaly:     003.2913 deg
Mean motion:   14.29487525 rev/day
Decay rate:        2.1e-07 rev/day^2
Epoch rev:           76336
Checksum:              350

